TimeCDT,TemperatureF,Dew PointF,Humidity,Sea Level PressureIn,VisibilityMPH,Wind Direction,Wind SpeedMPH,Gust SpeedMPH,PrecipitationIn,Events,Conditions,WindDirDegrees,DateUTC
12:53 AM,71.1,68.0,90,30.06,10.0,ESE,5.8,-,0.00,Rain,Light Rain,110,2013-08-18 05:53:00
1:53 AM,71.1,68.0,90,30.06,10.0,SE,6.9,-,0.01,,Overcast,130,2013-08-18 06:53:00
2:53 AM,71.1,68.0,90,30.06,10.0,East,3.5,-,0.01,Rain,Light Rain,100,2013-08-18 07:53:00
3:53 AM,71.1,68.0,90,30.06,10.0,East,3.5,-,0.02,,Scattered Clouds,90,2013-08-18 08:53:00
4:53 AM,71.1,68.0,90,30.07,10.0,Calm,Calm,-,N/A,,Overcast,0,2013-08-18 09:53:00
5:53 AM,71.1,68.0,90,30.09,10.0,Calm,Calm,-,N/A,,Overcast,0,2013-08-18 10:53:00
6:03 AM,71.6,68.0,88,30.10,10.0,ENE,3.5,-,N/A,,Overcast,60,2013-08-18 11:03:00
6:53 AM,71.1,68.0,90,30.10,10.0,Calm,Calm,-,N/A,,Overcast,0,2013-08-18 11:53:00
7:53 AM,71.1,69.1,93,30.11,10.0,NNE,5.8,-,0.00,Rain,Light Rain,30,2013-08-18 12:53:00
8:28 AM,71.6,69.8,94,30.10,10.0,NE,8.1,-,0.02,Rain,Light Rain,40,2013-08-18 13:28:00
8:53 AM,72.0,69.1,91,30.10,10.0,NE,5.8,-,0.02,Rain,Light Rain,50,2013-08-18 13:53:00
9:17 AM,71.6,69.8,94,30.11,10.0,ENE,5.8,-,0.00,Rain,Light Rain,60,2013-08-18 14:17:00
9:53 AM,73.0,69.1,87,30.12,10.0,NE,5.8,-,0.04,,Overcast,50,2013-08-18 14:53:00
10:53 AM,73.9,69.1,85,30.11,10.0,ENE,11.5,-,0.00,,Overcast,60,2013-08-18 15:53:00
11:50 AM,75.2,69.8,83,30.11,10.0,ENE,8.1,-,N/A,,Overcast,70,2013-08-18 16:50:00
11:53 AM,75.0,70.0,84,30.10,10.0,ENE,6.9,-,N/A,,Overcast,70,2013-08-18 16:53:00
12:53 PM,75.9,71.1,85,30.10,10.0,ENE,6.9,-,N/A,,Mostly Cloudy,70,2013-08-18 17:53:00
1:23 PM,75.2,71.6,89,30.09,4.0,NE,9.2,-,0.01,Rain,Rain,50,2013-08-18 18:23:00
1:53 PM,75.9,72.0,87,30.08,10.0,ENE,6.9,-,0.08,Rain,Light Rain,70,2013-08-18 18:53:00
2:37 PM,75.2,71.6,89,30.09,10.0,East,9.2,-,0.00,,Overcast,90,2013-08-18 19:37:00
2:53 PM,75.9,72.0,87,30.08,10.0,ENE,8.1,-,0.00,,Overcast,70,2013-08-18 19:53:00
3:14 PM,75.2,71.6,89,30.08,6.0,ENE,4.6,-,0.01,Rain,Light Rain,70,2013-08-18 20:14:00
3:27 PM,75.2,71.6,89,30.08,6.0,East,5.8,-,0.01,,Overcast,80,2013-08-18 20:27:00
3:41 PM,75.2,73.4,94,30.07,4.0,East,6.9,-,0.01,Rain,Light Rain,90,2013-08-18 20:41:00
3:53 PM,75.9,73.0,91,30.05,4.0,East,8.1,-,0.02,Rain,Light Rain,80,2013-08-18 20:53:00
4:53 PM,77.0,73.0,88,30.06,7.0,NE,5.8,-,0.02,Rain,Light Rain,50,2013-08-18 21:53:00
5:06 PM,75.2,73.4,94,30.06,10.0,NE,5.8,-,0.01,Rain,Light Rain,50,2013-08-18 22:06:00
5:17 PM,77.0,73.4,89,30.05,10.0,NE,5.8,-,0.01,,Overcast,50,2013-08-18 22:17:00
5:33 PM,77.0,73.4,89,30.05,10.0,ENE,5.8,-,0.01,,Overcast,70,2013-08-18 22:33:00
5:41 PM,77.0,73.4,89,30.05,10.0,ENE,6.9,-,0.01,,Overcast,70,2013-08-18 22:41:00
5:53 PM,77.0,73.9,90,30.04,10.0,East,6.9,-,0.01,,Overcast,90,2013-08-18 22:53:00
6:12 PM,78.8,73.4,83,30.04,10.0,SE,5.8,-,0.00,Rain,Light Rain,130,2013-08-18 23:12:00
6:31 PM,77.0,71.6,83,30.05,10.0,SSE,9.2,17.3,0.00,,Mostly Cloudy,160,2013-08-18 23:31:00
6:53 PM,75.0,70.0,84,30.06,10.0,South,6.9,-,0.00,,Overcast,180,2013-08-18 23:53:00
7:53 PM,73.9,70.0,87,30.07,10.0,SSE,3.5,-,0.00,,Mostly Cloudy,150,2013-08-19 00:53:00
8:53 PM,73.9,70.0,87,30.06,10.0,ENE,4.6,-,N/A,,Scattered Clouds,70,2013-08-19 01:53:00
9:53 PM,73.0,70.0,90,30.07,10.0,ENE,4.6,-,N/A,,Mostly Cloudy,60,2013-08-19 02:53:00
10:53 PM,73.0,70.0,90,30.07,10.0,ENE,4.6,-,N/A,,Clear,70,2013-08-19 03:53:00
11:53 PM,72.0,69.1,91,30.07,10.0,East,6.9,-,N/A,,Clear,90,2013-08-19 04:53:00